Satellite: MET-3/5
Catalog number: 21655
Epoch time:      08247.97332910
Element set:    0485
Inclination:      082.5510 deg
RA of node:       048.7073 deg
Eccentricity:    0.0013125
Arg of perigee:   171.6601 deg
Mean anomaly:     188.4741 deg
Mean motion:   13.17016488 rev/day
Decay rate:        5.1e-07 rev/day^2
Epoch rev:           81995
Checksum:              304

Satellite: MET-2/21
Catalog number: 22782
Epoch time:      08247.52584783
Element set:    0241
Inclination:      082.5448 deg
RA of node:       049.4175 deg
Eccentricity:    0.0024059
Arg of perigee:   071.5432 deg
Mean anomaly:     288.8342 deg
Mean motion:   13.83630151 rev/day
Decay rate:       -2.2e-07 rev/day^2
Epoch rev:           75796
Checksum:              315

Satellite: OKEAN-4
Catalog number: 23317
Epoch time:      08248.69454483
Element set:     685
Inclination:      082.5360 deg
RA of node:       240.8732 deg
Eccentricity:    0.0020774
Arg of perigee:   222.1232 deg
Mean anomaly:     137.8428 deg
Mean motion:   14.82632349 rev/day
Decay rate:       1.53e-06 rev/day^2
Epoch rev:           75006
Checksum:              300

Satellite: NOAA-14
Catalog number: 23455
Epoch time:      08248.03564304
Element set:     292
Inclination:      098.9408 deg
RA of node:       320.3017 deg
Eccentricity:    0.0008521
Arg of perigee:   281.6994 deg
Mean anomaly:     078.3189 deg
Mean motion:   14.13748802 rev/day
Decay rate:       2.67e-06 rev/day^2
Epoch rev:           70549
Checksum:              317

Satellite: NOAA-15
Catalog number: 25338
Epoch time:      08248.01432580
Element set:     609
Inclination:      098.5602 deg
RA of node:       237.8924 deg
Eccentricity:    0.0010861
Arg of perigee:   166.5633 deg
Mean anomaly:     193.5867 deg
Mean motion:   14.24723612 rev/day
Decay rate:       1.62e-06 rev/day^2
Epoch rev:           53602
Checksum:              304

Satellite: RESURS
Catalog number: 25394
Epoch time:      08248.70972511
Element set:      14
Inclination:      098.3784 deg
RA of node:       289.0188 deg
Eccentricity:    0.0001662
Arg of perigee:   003.5919 deg
Mean anomaly:     356.5272 deg
Mean motion:   14.24169409 rev/day
Decay rate:        1.4e-07 rev/day^2
Epoch rev:           52776
Checksum:              311

Satellite: FENGYUN1
Catalog number: 25730
Epoch time:      08247.95154990
Element set:    0618
Inclination:      098.7262 deg
RA of node:       221.0853 deg
Eccentricity:    0.0020497
Arg of perigee:   309.4396 deg
Mean anomaly:     050.4959 deg
Mean motion:   14.07765128 rev/day
Decay rate:       1.17e-06 rev/day^2
Epoch rev:           48004
Checksum:              314

Satellite: OKEAN-0
Catalog number: 25860
Epoch time:      08247.47948538
Element set:    0462
Inclination:      097.7571 deg
RA of node:       234.5888 deg
Eccentricity:    0.0001721
Arg of perigee:   055.0720 deg
Mean anomaly:     305.0660 deg
Mean motion:   14.73534081 rev/day
Decay rate:       -2.0e-08 rev/day^2
Epoch rev:           49092
Checksum:              301

Satellite: NOAA-16
Catalog number: 26536
Epoch time:      08248.04767338
Element set:      83
Inclination:      099.1622 deg
RA of node:       238.9764 deg
Eccentricity:    0.0010525
Arg of perigee:   009.8240 deg
Mean anomaly:     350.3180 deg
Mean motion:   14.12494543 rev/day
Decay rate:       -1.9e-07 rev/day^2
Epoch rev:           40990
Checksum:              305

Satellite: NOAA-17
Catalog number: 27453
Epoch time:      08248.03034797
Element set:      78
Inclination:      098.5270 deg
RA of node:       310.3475 deg
Eccentricity:    0.0010926
Arg of perigee:   235.3552 deg
Mean anomaly:     124.6572 deg
Mean motion:   14.23998690 rev/day
Decay rate:       -5.8e-07 rev/day^2
Epoch rev:           32202
Checksum:              308

Satellite: NOAA-18
Catalog number: 28654
Epoch time:      08248.03780883
Element set:     565
Inclination:      098.8709 deg
RA of node:       188.0109 deg
Eccentricity:    0.0015373
Arg of perigee:   091.0056 deg
Mean anomaly:     269.2918 deg
Mean motion:   14.11190699 rev/day
Decay rate:       4.18e-06 rev/day^2
Epoch rev:           16959
Checksum:              348

/EX
SB KEPS @ AMSAT  $ORB08248.M
Orbital Elements  08248.MISC

HR AMSAT ORBITAL ELEMENTS FOR MANNED AND MISCELLANEOUS SATELLITES
FROM WA5QGD FORT WORTH,TX September 4, 2008
Send Subscribe/unsubscribe to KEPS at 
http://www.amsat.org/mailman/listinfo/keps
BID: ORB08248.M
TO ALL RADIO AMATEURS BT

Satellite: HUBBLE
Catalog number: 20580
Epoch time:      08248.89964023
Element set:     214
Inclination:      028.4674 deg
RA of node:       163.3076 deg
Eccentricity:    0.0003900
Arg of perigee:   151.7280 deg
Mean anomaly:     208.3519 deg
Mean motion:   15.00403578 rev/day
Decay rate:       2.44e-06 rev/day^2
Epoch rev:           80696
Checksum:              287

Satellite: PO-34
Catalog number: 25520
Epoch time:      08247.67098725
Element set:    0081
Inclination:      028.4591 deg
RA of node:       013.3168 deg
Eccentricity:    0.0005096
Arg of perigee:   065.0637 deg
Mean anomaly:     295.0483 deg
Mean motion:   15.17223509 rev/day
Decay rate:       3.20e-06 rev/day^2
Epoch rev:           54509
Checksum:              297

